TimeCET,TemperatureF,Dew PointF,Humidity,Sea Level PressureIn,VisibilityMPH,Wind Direction,Wind SpeedMPH,Gust SpeedMPH,PrecipitationIn,Events,Conditions,WindDirDegrees,DateUTC
12:00 AM,41.0,39.2,93,30.09,-9999.0,East,8.1,-,N/A,,Mist,100,2012-11-17 23:00:00
12:30 AM,39.2,39.2,100,30.09,1.9,ESE,6.9,-,N/A,,Mist,110,2012-11-17 23:30:00
1:00 AM,42.8,41.0,93,30.09,-9999.0,East,10.4,-,N/A,,Mist,80,2012-11-18 00:00:00
1:30 AM,42.8,39.2,87,30.09,-9999.0,East,11.5,-,N/A,,Mist,100,2012-11-18 00:30:00
2:00 AM,41.0,39.2,93,30.09,-9999.0,ESE,9.2,-,N/A,,Mist,110,2012-11-18 01:00:00
2:30 AM,41.0,39.2,93,30.09,-9999.0,East,6.9,-,N/A,,Mist,90,2012-11-18 01:30:00
3:00 AM,41.0,39.2,93,30.06,2.5,East,9.2,-,N/A,,Mist,100,2012-11-18 02:00:00
3:30 AM,39.2,37.4,93,30.06,2.2,East,10.4,-,N/A,,Mist,100,2012-11-18 02:30:00
4:00 AM,39.2,37.4,93,30.06,2.2,ESE,9.2,-,N/A,,Mist,110,2012-11-18 03:00:00
4:30 AM,39.2,37.4,93,30.09,2.2,SE,6.9,-,N/A,,Scattered Clouds,130,2012-11-18 03:30:00
5:00 AM,41.0,39.2,93,30.09,2.2,East,5.8,-,N/A,,Mostly Cloudy,90,2012-11-18 04:00:00
5:30 AM,41.0,39.2,93,30.09,2.2,East,6.9,-,N/A,,Mostly Cloudy,90,2012-11-18 04:30:00
6:00 AM,41.0,39.2,93,30.06,2.2,East,6.9,-,N/A,,Overcast,100,2012-11-18 05:00:00
6:30 AM,41.0,39.2,93,30.06,2.2,East,10.4,-,N/A,,Mostly Cloudy,100,2012-11-18 05:30:00
7:00 AM,41.0,39.2,93,30.09,2.2,SE,8.1,-,N/A,,Mostly Cloudy,130,2012-11-18 06:00:00
7:30 AM,42.8,39.2,87,30.09,2.5,ESE,9.2,-,N/A,,Mostly Cloudy,120,2012-11-18 06:30:00
8:00 AM,42.8,39.2,87,30.09,3.1,ESE,11.5,-,N/A,,Mostly Cloudy,110,2012-11-18 07:00:00
8:30 AM,42.8,39.2,87,30.09,3.1,ESE,11.5,-,N/A,,Mostly Cloudy,110,2012-11-18 07:30:00
9:00 AM,42.8,39.2,87,30.09,3.1,ESE,11.5,-,N/A,,Mist,120,2012-11-18 08:00:00
9:30 AM,44.6,39.2,81,30.09,3.1,ESE,9.2,-,N/A,,Mist,120,2012-11-18 08:30:00
10:00 AM,44.6,39.2,81,30.09,3.1,SE,8.1,-,N/A,,Mostly Cloudy,130,2012-11-18 09:00:00
10:30 AM,44.6,39.2,81,30.06,3.7,ESE,11.5,-,N/A,,Mostly Cloudy,110,2012-11-18 09:30:00
11:00 AM,44.6,39.2,81,30.09,3.7,ESE,10.4,-,N/A,,Mostly Cloudy,120,2012-11-18 10:00:00
11:30 AM,44.6,41.0,87,30.06,3.7,ESE,9.2,-,N/A,,Mostly Cloudy,120,2012-11-18 10:30:00
12:00 PM,44.6,39.2,81,30.06,3.7,East,9.2,-,N/A,,Mostly Cloudy,90,2012-11-18 11:00:00
12:30 PM,46.4,41.0,81,30.06,3.7,ESE,6.9,-,N/A,,Mostly Cloudy,110,2012-11-18 11:30:00
1:00 PM,46.4,41.0,81,30.06,3.7,East,8.1,-,N/A,,Overcast,90,2012-11-18 12:00:00
1:30 PM,46.4,41.0,81,30.04,3.7,East,9.2,-,N/A,,Mostly Cloudy,90,2012-11-18 12:30:00
2:00 PM,46.4,41.0,81,30.04,3.7,East,9.2,-,N/A,,Mostly Cloudy,80,2012-11-18 13:00:00
2:30 PM,48.2,41.0,76,30.04,3.7,East,9.2,-,N/A,,Mostly Cloudy,80,2012-11-18 13:30:00
3:00 PM,46.4,41.0,81,30.06,3.7,East,8.1,-,N/A,,Mostly Cloudy,90,2012-11-18 14:00:00
3:30 PM,48.2,42.8,82,30.04,3.7,East,8.1,-,N/A,,Mostly Cloudy,80,2012-11-18 14:30:00
4:00 PM,46.4,41.0,81,30.06,3.1,East,5.8,-,N/A,,Mostly Cloudy,90,2012-11-18 15:00:00
4:30 PM,46.4,42.8,87,30.06,3.1,ENE,4.6,-,N/A,,Mist,70,2012-11-18 15:30:00
5:00 PM,46.4,42.8,87,30.06,3.7,Variable,3.5,-,N/A,,Unknown,0,2012-11-18 16:00:00
5:30 PM,46.4,42.8,87,30.06,3.7,East,5.8,-,N/A,,Unknown,80,2012-11-18 16:30:00
6:00 PM,46.4,42.8,87,30.06,3.7,East,5.8,-,N/A,,Unknown,80,2012-11-18 17:00:00
6:30 PM,46.4,42.8,87,30.06,3.7,East,6.9,-,N/A,,Unknown,80,2012-11-18 17:30:00
7:00 PM,46.4,42.8,87,30.06,3.7,ENE,4.6,-,N/A,Rain,Light Rain Showers,70,2012-11-18 18:00:00
7:30 PM,46.4,42.8,87,30.06,3.7,East,4.6,-,N/A,,Mostly Cloudy,80,2012-11-18 18:30:00
8:00 PM,46.4,44.6,93,30.06,3.7,ENE,5.8,-,N/A,,Mostly Cloudy,70,2012-11-18 19:00:00
8:30 PM,46.4,42.8,87,30.06,3.7,East,8.1,-,N/A,,Unknown,90,2012-11-18 19:30:00
9:00 PM,44.6,42.8,93,30.06,3.7,East,8.1,-,N/A,,Unknown,90,2012-11-18 20:00:00
9:30 PM,44.6,42.8,93,30.09,3.7,East,5.8,-,N/A,,Unknown,80,2012-11-18 20:30:00
10:00 PM,44.6,42.8,93,30.09,3.7,ENE,6.9,-,N/A,,Scattered Clouds,70,2012-11-18 21:00:00
10:30 PM,44.6,42.8,93,30.09,3.7,East,4.6,-,N/A,,Unknown,80,2012-11-18 21:30:00
11:00 PM,44.6,42.8,93,30.09,3.7,East,5.8,-,N/A,,Unknown,80,2012-11-18 22:00:00
11:30 PM,44.6,42.8,93,30.09,3.7,East,6.9,-,N/A,,Mostly Cloudy,100,2012-11-18 22:30:00